Regional Weather Roundup
Issued by NWS

Home | Current Version | Previous Version | Graphics & Text | Print | Product List | Glossary On
Versions: 1 2 3 4 5 6 7 8 9 10 11 12 13 14 15 16 17 18 19 20 21 22 23 24 25 26 27 28 29 30 31 32 33 34 35 36 37 38 39 40 41 42 43 44 45 46 47 48 49 50
000
ASUS43 KIND 301509
RWRIN

WEATHER ROUNDUP FOR INDIANA
NATIONAL WEATHER SERVICE INDIANAPOLIS IN
1000 AM EST FRI JAN 30 2015

NOTE: "FAIR" INDICATES FEW OR NO CLOUDS BELOW 12,000 FEET WITH NO
SIGNIFICANT WEATHER AND/OR OBSTRUCTIONS TO VISIBILITY.

* - STATION DOES NOT REPORT WEATHER SUCH AS PRECIPITATION OR FOG.

+ - STATION NOT QUALITY CONTROLLED BY THE NATIONAL WEATHER SERVICE.
    USE DATA WITH CAUTION...ESPECIALLY DEWPOINT AND RELATIVE
    HUMIDITY OBSERVATIONS.

INZ001>003-010>013-019-020-301600-
NORTHWEST INDIANA

CITY           SKY/WX    TMP DP  RH WIND       PRES   REMARKS
GARY /AIRPORT/ MOSUNNY   27   7  43 NW14G25   30.51R WCI  15
KNOX *+        CLOUDY    27   3  36 N15       30.47R WCI  15
LA PORTE +     CLOUDY    27  15  61 N16       30.48R WCI  15
MICHIGAN CITY+ CLOUDY    27  10  50 N10G20    30.49R WCI  17
MONTICELLO +   CLOUDY    26  20  78 NW10      30.47R WCI  16
RENSSELAER +   CLOUDY    27  18  69 NW12      30.50R WCI  16
VALPARAISO     CLOUDY    25  15  66 N13G18    30.48R WCI  14

$$

LMZ046-743>745-301600-
SOUTHERN LAKE MICHIGAN

STATION/POSITION TIME  TEMP WIND        PRES
                       AIR  DIR/SP/G
                 (UTC) (F)  (DEG/KT/KT) (MB)
MICHIGAN CITY    1500   25  350/ 19/ 24   N/A

$$

INZ004-005-014>016-021>024-301600-
NORTH CENTRAL INDIANA

CITY           SKY/WX    TMP DP  RH WIND       PRES   REMARKS
ELKHART        CLOUDY    21   9  58 N8        30.47R WCI  12
GOSHEN         CLOUDY    22  12  65 N12       30.46R WCI  10
LOGANSPORT +   MOSUNNY   28  18  64 N10       30.48R WCI  19
PERU/GRISSOM   CLOUDY    25  15  65 N14       30.45R WCI  14
ROCHESTER +    MOSUNNY   28  19  69 N10       30.47R WCI  19
SOUTH BEND     LGT SNOW  24  15  68 N15       30.47R WCI  11
WARSAW +       FLURRIES  23  14  68 N12       30.46R WCI  12

$$

INZ006>009-017-018-025>027-301600-
NORTHEAST INDIANA

CITY           SKY/WX    TMP DP  RH WIND       PRES   REMARKS
ANGOLA *+      CLOUDY    19   9  63 N9        30.42R WCI   9
AUBURN +       CLOUDY    23  12  63 N8        30.45R WCI  14
FORT WAYNE     PTSUNNY   23  10  57 N22G30    30.46R WCI   8
HUNTINGTON +   CLOUDY    22   9  55 N13G18    30.46R WCI  10

$$

INZ028-029-035-036-043>045-051>053-301600-
WEST CENTRAL INDIANA

CITY           SKY/WX    TMP DP  RH WIND       PRES   REMARKS
GREENCASTLE +  SUNNY     28  12  50 N15G21    30.48R WCI  17
LAFAYETTE      SUNNY     27  14  58 N12       30.49R WCI  17
TERRE HAUTE    CLOUDY    30  18  60 NE12      30.50R WCI  20

$$

INZ030>032-037>040-046>048-054>057-064-065-301600-
CENTRAL INDIANA

CITY           SKY/WX    TMP DP  RH WIND       PRES   REMARKS
ANDERSON       CLOUDY    25  16  68 N12G17    30.45R WCI  14
CP ATTERBURY + CLOUDY    30  19  64 N13       30.47R WCI  20
COLUMBUS       CLOUDY    28  16  59 N15G22    30.47  WCI  17
GREENWOOD *+   SUNNY     28  12  50 N10       30.46R WCI  19
INDIANAPOLIS   MOSUNNY   25  14  63 N15       30.46R WCI  13
-EAGLE CREEK   MOSUNNY   27  16  63 N12       30.46R WCI  17
KOKOMO *+      CLOUDY    27  16  63 N15       30.46R WCI  15
MARION +       FLURRIES  24  17  74 N13       30.46R WCI  12
MT COMFORT *+  PTSUNNY   28   9  43 N17       30.46R WCI  16
SHELBYVILLE    MOSUNNY   30  15  53 N17       30.45R WCI  18
ZIONSVILLE +   FLURRIES  27  17  67 NW12      30.46R WCI  16

$$

INZ033-034-041-042-049-050-058-059-301600-
EAST CENTRAL INDIANA

CITY           SKY/WX    TMP DP  RH WIND       PRES   REMARKS
MUNCIE         CLOUDY    24  15  68 N18G31    30.44R WCI  10

$$

INZ060-061-067>069-081>083-085>088-301600-
SOUTHWEST INDIANA

CITY           SKY/WX    TMP DP  RH WIND       PRES   REMARKS
EVANSVILLE     MOSUNNY   34  22  61 N14G23    30.52R WCI  25
HUNTINGBURG *+ PTSUNNY   34  23  64 NW14G21   30.49R WCI  24
WASHINGTON +   PTSUNNY   31  22  69 N12       30.50R WCI  22

$$

INZ062-063-066-070>080-084-089>092-301600-
SOUTH CENTRAL AND SOUTHEAST INDIANA

CITY           SKY/WX    TMP DP  RH WIND       PRES   REMARKS
BLOOMINGTON    CLOUDY    29  20  69 N15       30.46R WCI  18
NORTH VERNON + MOSUNNY   30  16  55 N15G24    30.45R WCI  19
SEYMOUR +      CLOUDY    32  18  55 N15G21    30.47R WCI  22

$$




USA.gov is the U.S. government's official web portal to all federal, state and local government web resources and services.